User: anonymous
Location: Ostrava
(49.8330°N, 18.2830°E)
Time: 06:12:45
(UTC+02:00)
Language:

Vanguard 2 Rocket - Orbit

View from above orbital plane
View from above orbital plane
View from above satellite
View from above satellite

Ground track
Ground track

The orbit data is extracted from the following two-line orbital elements,

1 00012U 59001B   14104.89430924  .00002213  00000-0  13322-2 0  8087
2 00012 032.8996 318.5151 1670567 103.5821 275.5629 11.43070730264192
Epoch (UTC): 14 April 2014 21:27:48
Eccentricity: 0.1670567
inclination: 32.8996°
perigee height: 555 km
apogee height: 3337 km
right ascension of ascending node: 318.5151°
argument of perigee: 103.5821°
revolutions per day: 11.43070730
mean anomaly at epoch: 275.5629°
orbit number at epoch: 26419

The dashed part of the orbit path shows where the satellite is in the earth's shadow,  

DLR